Monett, MO

7:00 PM CST on January 23, 2018 (GMT -0600)
Monett

Weather History for KHFJ - March, 2014

Change the Weather History Date:

Saturday, March 1, 2014

  Actual Average (KJLN) Record (KJLN)
Temperature  
Mean Temperature 38 °F -  
Max Temperature 51 °F 55 °F 87 °F (2006)
Min Temperature 26 °F 34 °F 5 °F (1962)
Degree Days  
Heating Degree Days 26    
Moisture  
Dew Point 32 °F    
Average Humidity 78    
Maximum Humidity 100    
Minimum Humidity 57    
Precipitation  
Precipitation 0.00 in - - ()
Sea Level Pressure  
Sea Level Pressure 30.04 in    
Wind  
Wind Speed 6 mph (ENE)    
Max Wind Speed 17 mph    
Max Gust Speed 25 mph    
Visibility 9 miles    
Events      
Averages and records for this station are not official NWS values.
T = Trace of Precipitation, MM = Missing Value Source: NWS Daily Summary

Daily Weather History Graph

Daily Weather History Graph

Search for Another Location

Airport or City:

Trip Planner

Search our weather history database for the weather conditions in past years. The results will help you decide how hot, cold, wet, or windy it might be!

Date:

Astronomy

Mar. 01, 2014 Rise Set
Actual Time 6:46 AM CST 6:10 PM CST
Civil Twilight 6:20 AM CST 6:36 PM CST
Nautical Twilight 5:50 AM CST 7:06 PM CST
Astronomical Twilight 5:20 AM CST 7:36 PM CST
Moon 6:42 AM CST (3/1) 6:56 PM CST (3/1)
Length of Visible Light 12h 15m
Length of Day
11h 23m
New Moon, 0% of the Moon is Illuminated
Mar 1
New Moon
Mar 8
First Quarter
Mar 16
Full
Mar 23
Last Quarter
Mar 30
New

Hourly Weather History & Observations

Time (CST) Temp. Windchill Dew Point Humidity Pressure Visibility Wind Dir Wind Speed Gust Speed Precip Events Conditions
12:15 AM 35.6 °F - 33.8 °F 93% 29.98 in 10.0 mi Calm Calm - N/A   Overcast
12:35 AM 35.6 °F 32.8 °F 33.8 °F 93% 29.99 in 10.0 mi SE 3.5 mph - N/A   Overcast
12:55 AM 35.6 °F - 33.8 °F 93% 30.00 in 10.0 mi Calm Calm - N/A   Overcast
1:15 AM 35.6 °F - 33.8 °F 93% 30.00 in 10.0 mi Calm Calm - N/A   Overcast
1:35 AM 35.6 °F - 32.0 °F 87% 30.00 in 10.0 mi Calm Calm - N/A   Overcast
1:55 AM 35.6 °F - 32.0 °F 87% 30.00 in 10.0 mi Calm Calm - N/A   Overcast
2:15 AM 33.8 °F 30.8 °F 32.0 °F 93% 30.00 in 10.0 mi SE 3.5 mph - N/A   Mostly Cloudy
2:35 AM 33.8 °F - 32.0 °F 93% 30.00 in 10.0 mi Calm Calm - N/A   Mostly Cloudy
2:55 AM 33.8 °F 28.6 °F 32.0 °F 93% 30.00 in 10.0 mi ESE 5.8 mph - N/A   Scattered Clouds
3:15 AM 33.8 °F 30.8 °F 32.0 °F 93% 30.00 in 10.0 mi ESE 3.5 mph - N/A   Clear
3:35 AM 33.8 °F 29.6 °F 32.0 °F 93% 30.00 in 10.0 mi ESE 4.6 mph - N/A   Clear
3:55 AM 32.0 °F 27.5 °F 32.0 °F 100% 30.01 in 10.0 mi ESE 4.6 mph - N/A   Clear
4:15 AM 32.0 °F 27.5 °F 32.0 °F 100% 30.02 in 10.0 mi East 4.6 mph - N/A   Clear
4:35 AM 32.0 °F 25.6 °F 32.0 °F 100% 30.01 in 10.0 mi ESE 6.9 mph - N/A   Clear
4:55 AM 32.0 °F 24.8 °F 32.0 °F 100% 30.01 in 7.0 mi East 8.1 mph - N/A   Clear
5:15 AM 32.0 °F 25.6 °F 32.0 °F 100% 30.02 in 7.0 mi ESE 6.9 mph - N/A   Clear
5:35 AM 32.0 °F 26.4 °F 32.0 °F 100% 30.03 in 7.0 mi East 5.8 mph - N/A   Clear
5:55 AM 32.0 °F 25.6 °F 32.0 °F 100% 30.03 in 7.0 mi ESE 6.9 mph - N/A   Clear
6:15 AM 32.0 °F 25.6 °F 32.0 °F 100% 30.04 in 7.0 mi ESE 6.9 mph - N/A   Clear
6:35 AM 32.0 °F 28.7 °F 30.2 °F 93% 30.06 in 5.0 mi SE 3.5 mph - N/A   Clear
6:55 AM 32.0 °F 26.4 °F 32.0 °F 100% 30.05 in 5.0 mi East 5.8 mph - N/A   Clear
7:15 AM 32.0 °F 26.4 °F 32.0 °F 100% 30.06 in 4.0 mi ENE 5.8 mph - N/A   Clear
7:35 AM 32.0 °F - 32.0 °F 100% 30.07 in 5.0 mi Calm Calm - N/A   Clear
7:55 AM 33.8 °F - 32.0 °F 93% 30.10 in 7.0 mi Calm Calm - N/A   Clear
8:15 AM 35.6 °F - 33.8 °F 93% 30.09 in 7.0 mi Calm Calm - N/A   Clear
8:35 AM 39.2 °F 37.0 °F 35.6 °F 87% 30.07 in 7.0 mi East 3.5 mph - N/A   Clear
8:55 AM 41.0 °F 36.4 °F 35.6 °F 81% 30.08 in 10.0 mi NNE 6.9 mph - N/A   Clear
9:15 AM 42.8 °F 36.2 °F 35.6 °F 76% 30.06 in 10.0 mi ENE 12.7 mph 17.3 mph N/A   Clear
9:35 AM 44.6 °F 38.8 °F 35.6 °F 71% 30.06 in 10.0 mi ENE 11.5 mph 16.1 mph N/A   Clear
9:55 AM 44.6 °F 40.2 °F 35.6 °F 71% 30.07 in 10.0 mi ENE 8.1 mph - N/A   Clear
10:15 AM 46.4 °F 42.9 °F 35.6 °F 66% 30.07 in 10.0 mi NE 6.9 mph - N/A   Scattered Clouds
10:35 AM 48.2 °F - 35.6 °F 62% 30.09 in 10.0 mi NE 5.8 mph - N/A   Mostly Cloudy
10:55 AM 50.0 °F - 35.6 °F 58% 30.09 in 10.0 mi ESE 5.8 mph - N/A   Overcast
11:15 AM 50.0 °F - 35.6 °F 58% 30.09 in 10.0 mi East 5.8 mph - N/A   Mostly Cloudy
11:35 AM 50.0 °F - 35.6 °F 58% 30.08 in 10.0 mi ESE 8.1 mph - N/A   Mostly Cloudy
11:55 AM 50.0 °F - 35.6 °F 58% 30.07 in 10.0 mi ESE 5.8 mph - N/A   Overcast
12:15 PM 50.0 °F - 37.4 °F 62% 30.05 in 10.0 mi East 6.9 mph - N/A   Overcast
12:30 PM 50.0 °F - 37.4 °F 62% 30.05 in 10.0 mi East 5.8 mph - N/A   Overcast
12:55 PM 51.8 °F - 37.4 °F 58% 30.03 in 10.0 mi East 9.2 mph - N/A   Overcast
1:15 PM 51.8 °F - 37.4 °F 58% 30.02 in 10.0 mi ESE 9.2 mph - N/A   Overcast
1:35 PM 51.8 °F - 37.4 °F 58% 30.00 in 10.0 mi East 9.2 mph - N/A   Overcast
1:55 PM 51.8 °F - 37.4 °F 58% 30.00 in 10.0 mi ESE 8.1 mph - N/A   Overcast
2:15 PM 50.0 °F - 37.4 °F 62% 30.03 in 10.0 mi SE 4.6 mph - N/A   Overcast
2:35 PM 50.0 °F - 37.4 °F 62% 30.02 in 10.0 mi ESE 5.8 mph - N/A   Overcast
2:55 PM 50.0 °F - 37.4 °F 62% 30.01 in 10.0 mi SE 8.1 mph - N/A   Overcast
3:15 PM 50.0 °F - 37.4 °F 62% 30.01 in 10.0 mi ESE 8.1 mph - N/A   Overcast
3:35 PM 50.0 °F - 39.2 °F 66% 30.01 in 10.0 mi ESE 6.9 mph - N/A   Overcast
3:55 PM 50.0 °F - 39.2 °F 66% 30.01 in 10.0 mi Calm Calm - N/A   Overcast
4:15 PM 46.4 °F 41.1 °F 32.0 °F 57% 30.01 in 10.0 mi North 11.5 mph - N/A   Overcast
4:35 PM 44.6 °F 40.2 °F 32.0 °F 61% 30.00 in 10.0 mi NNE 8.1 mph - N/A   Overcast
4:55 PM 44.6 °F 38.8 °F 32.0 °F 61% 30.00 in 10.0 mi NNE 11.5 mph 16.1 mph N/A   Overcast
5:10 PM 42.8 °F 36.2 °F 32.0 °F 66% 30.00 in 10.0 mi NNE 12.7 mph 18.4 mph N/A   Overcast
5:35 PM 41.0 °F 33.9 °F 30.2 °F 65% 30.01 in 10.0 mi NNE 12.7 mph 17.3 mph N/A   Overcast
5:55 PM 41.0 °F 34.3 °F 30.2 °F 65% 30.01 in 10.0 mi NNE 11.5 mph 23.0 mph N/A   Overcast
6:15 PM 37.4 °F 29.3 °F 28.4 °F 70% 30.03 in 10.0 mi NNE 12.7 mph 19.6 mph N/A   Overcast
6:35 PM 35.6 °F 26.6 °F 28.4 °F 75% 30.03 in 10.0 mi NNE 13.8 mph 19.6 mph N/A   Overcast
6:55 PM 35.6 °F 27.5 °F 28.4 °F 75% 30.03 in 10.0 mi NNE 11.5 mph - N/A   Overcast
7:15 PM 35.6 °F 27.1 °F 26.6 °F 70% 30.05 in 10.0 mi NNE 12.7 mph 20.7 mph N/A   Overcast
7:35 PM 33.8 °F 23.9 °F 26.6 °F 75% 30.05 in 10.0 mi North 15.0 mph - N/A   Overcast
7:55 PM 33.8 °F 25.8 °F 26.6 °F 75% 30.05 in 10.0 mi NNE 10.4 mph - N/A   Overcast
8:15 PM 33.8 °F 25.3 °F 26.6 °F 75% 30.06 in 10.0 mi North 11.5 mph 17.3 mph N/A   Overcast
8:35 PM 32.0 °F 22.5 °F 26.6 °F 80% 30.06 in 10.0 mi NNE 12.7 mph 19.6 mph N/A   Overcast
8:55 PM 32.0 °F 21.2 °F 26.6 °F 80% 30.08 in 10.0 mi North 16.1 mph - N/A   Overcast
9:15 PM 32.0 °F 21.6 °F 24.8 °F 75% 30.08 in 10.0 mi NNE 15.0 mph - N/A   Overcast
9:35 PM 32.0 °F 23.6 °F 24.8 °F 75% 30.09 in 10.0 mi NNE 10.4 mph 19.6 mph N/A   Overcast
9:50 PM 32.0 °F 20.8 °F 23.0 °F 69% 30.10 in 10.0 mi North 17.3 mph 24.2 mph N/A   Overcast
10:15 PM 30.2 °F 18.5 °F 23.0 °F 75% 30.10 in 10.0 mi North 17.3 mph 23.0 mph N/A   Overcast
10:35 PM 30.2 °F 18.5 °F 23.0 °F 75% 30.12 in 10.0 mi North 17.3 mph 25.3 mph N/A   Overcast
10:55 PM 28.4 °F 18.5 °F 24.8 °F 86% 30.11 in 7.0 mi North 11.5 mph 20.7 mph N/A   Overcast
11:15 PM 28.4 °F 17.5 °F 24.8 °F 86% 30.10 in 5.0 mi NNE 13.8 mph 20.7 mph N/A   Overcast
11:35 PM 26.6 °F 14.3 °F 24.8 °F 93% 30.12 in 5.0 mi North 16.1 mph 23.0 mph N/A   Overcast
11:55 PM 26.6 °F 15.2 °F 24.8 °F 93% 30.11 in 4.0 mi NNE 13.8 mph 21.9 mph N/A   Overcast